STARLINK-31751, 59574

Orbit data source: Space-Track

STARLINK-31751, 59574 is a payload satellite owned by SpaceX/Seattle (US) in LEO that was launched on Tue, 23 Apr 2024 UTC via an FALCON 9 launch vehicle from the Air Force Eastern Test Range (AFETR). Payload-class satellites include a variety of spacecraft equipped with specific instruments for various scientific and technological missions. These include communications satellites like Starlink; space stations such as the ISS; scientific satellites like the Hubble; Earth observation satellites from companies like Planet Labs, Umbra, and HawkEye 360; GPS; miniature CubeSats for education and research; and military/defense satellites.

Loading next visibility...
Identifier
59574, 2024-076L
Orbit
LEO
Last TLE update
9 hours ago
Origin
Manufacturer
SpaceX/Seattle
Mission
Operational spacecraft
Bus & Motor
STARLINK V2M, Unknown motor
Mass
730 kg wet, ~700 kg dry
Launch date (UTC)
2024-04-23 (1 year ago)
Launch vehicle
FALCON 9
Launch site
Air Force Eastern Test Range (AFETR)
Object type
Payload
Rocket body
Debris
Shape & HBR
Unknown
Radar Cross Section
Large (>1 m²)

Expand to show TLE details & history

TLE from 9 hours ago
0 STARLINK-31751
1 59574U 24076L   25128.88850277  .00002160  00000-0  87990-4 0  9998
2 59574  43.0007 290.6816 0000362 288.1895  71.8917 15.27581593 59889
Epoch: 2025-05-08T21:19Z
Definitive object data (Epoch: 2025-05-08T21:19:26.639Z)
Latitude
-0.00003°
Longitude
103.86804°
Altitude
482.743 km
Speed
7.626 km/s
True Right ascension
19h 22m 43s
True Declination
0° 00' 00"
Sunlit
Object was in full shadow at TLE epoch
Visualization TLE readout
Latitude
-43.15848°
Longitude
11.48548°
Altitude
496.155 km
Speed
7.617 km/s
Apparent Right ascension
08h 08m 16s
Apparent Declination
-79° 19' 13"
Sunlit
Object is in full shadow
Visualization observer readout
Local Sidereal Time
14:29:35
Azimuth
193.953° SSW
Elevation
-40.072°
Doppler factor
1
Orbital elements
Apogee altitude
485.238 km
Perigee altitude
484.741 km
Semi-major axis
6,863.126 km
Eccentricity
0.0000362
Inclination
43.0007°
RAAN
290.6816°
Arg. of periapsis
288.1895°
True anomaly
71.89564°
Mean anomaly
71.8917°
Eccentric anomaly
71.89367°
Mean motion
3.81733 °/min
BSTAR
0.00008799
Orbital period
94.31 mins
Loading maneuver chart data...
Loading SW <> Apogee altitude chart data...
Loading historical data...
Loading historical data...
Loading historical data...
Loading historical data...
Loading historical data...
Loading historical data...
Loading historical data...

STARLINK-31751 Visibility forecast

Observer location: undefined°, undefined°

Span
Click to sort rows by Start time (UTC) header in descending order
Start Az.
Max El. time (UTC)
Max El. Az.
Max El.
End time (UTC)
End Az.
4 mins2025-05-09 13:11:46.226Z183.351° SSW2025-05-09 13:13:46.226Z149.789° SSE16.434°2025-05-09 13:15:46.226Z111.79° ESE
5 mins2025-05-09 14:50:46.226Z239.055° WSW2025-05-09 14:52:46.226Z132.569° SE43.748°2025-05-09 14:55:46.226Z74.347° E
5 mins2025-05-09 16:29:46.226Z288.713° WNW2025-05-09 16:31:46.226Z0.641° NNE38.459°2025-05-09 16:34:46.226Z71.586° E
5 mins2025-05-09 18:08:46.226Z293.802° NW2025-05-09 18:10:46.226Z355.121° N43.157°2025-05-09 18:13:46.226Z96.854° ESE
5 mins2025-05-09 19:47:46.226Z262.09° W2025-05-09 19:49:46.226Z208.084° SW29.19°2025-05-09 19:52:46.226Z146.924° SSE
|